Theta_e
319 320 321 322 322 324 325 326 326 326 326 326 328 329 330 330 331 331 332 332 332 332 332 331 331 331 332 332 334 334 330 329 325 323 320 329 336 336 335 336 336 337 330 321 320 320 318 320 318 316 321 321 315 315 314 315 314 314 307 306 303 307 305 307 305 305 306 305 305 303 306 309 307 307 309 312 311 312 313 313 316 317 318 321 322 325 325 327
318 319 320 321 322 323 324 325 326 325 325 326 327 329 330 331 331 331 332 332 331 331 331 332 332 331 330 332 334 332 330 330 324 325 325 335 334 334 335 335 336 335 326 320 320 323 320 319 319 319 321 319 315 314 313 312 314 311 308 306 303 307 307 308 308 308 305 305 306 306 306 308 309 309 310 309 310 310 309 311 314 314 318 322 322 325 325 327
317 318 319 320 321 322 323 324 325 325 324 325 326 327 329 330 330 330 331 331 331 331 331 332 333 332 330 331 333 330 330 325 323 319 329 334 335 335 335 338 336 331 320 321 325 326 324 323 318 321 320 318 313 313 313 311 312 310 308 305 306 309 308 307 307 307 306 304 304 304 305 305 308 309 311 308 309 310 309 310 311 311 313 317 322 324 326 327
316 317 318 319 320 321 322 324 325 325 326 325 326 326 327 328 330 330 330 330 330 331 331 331 332 331 329 330 331 329 328 321 315 324 333 335 336 335 337 336 336 328 321 319 319 323 321 320 320 323 316 317 311 312 311 311 310 310 308 307 309 308 308 308 308 306 305 303 305 304 304 304 306 308 309 309 308 308 310 313 312 312 313 315 323 324 325 326
315 316 317 319 320 320 321 323 324 325 325 326 325 326 326 328 329 329 330 330 330 330 330 330 331 331 330 330 328 325 320 311 315 327 333 335 336 337 337 337 333 324 320 319 318 317 320 319 317 318 318 314 312 310 312 310 311 310 309 310 308 307 307 306 305 303 302 300 303 303 304 305 306 306 307 309 306 307 311 314 315 314 315 317 320 324 325 325
315 316 317 318 319 320 321 322 324 325 325 326 325 326 326 327 328 329 329 330 330 330 330 330 330 329 329 329 326 319 316 300 319 324 327 336 335 337 336 334 328 322 319 317 317 316 317 317 318 314 315 314 310 310 310 310 312 307 309 308 308 307 307 303 303 301 301 302 303 303 306 305 306 306 308 309 309 310 311 309 315 315 315 316 322 325 324 325
315 315 316 317 318 319 320 321 323 324 325 325 326 325 326 327 328 328 329 329 330 330 330 329 329 328 327 325 321 318 312 319 319 325 328 335 335 334 336 333 329 320 318 315 315 313 316 314 318 316 315 314 310 313 308 307 308 309 309 307 307 306 308 304 303 300 301 302 302 303 303 304 304 304 304 306 310 312 309 306 307 307 308 317 319 324 324 325
315 316 316 317 318 319 320 321 322 323 324 325 325 324 325 326 327 328 328 329 329 329 329 329 328 327 324 321 315 310 312 314 323 327 327 333 334 333 332 325 322 321 316 314 313 313 315 313 315 316 315 312 310 310 307 306 306 307 308 307 305 305 307 304 303 302 301 302 303 302 302 304 305 304 302 305 310 312 312 308 308 307 310 315 317 322 323 324
315 315 316 317 318 319 319 320 321 322 323 325 325 325 325 325 326 326 328 328 329 330 329 329 328 326 325 321 315 309 310 322 326 329 330 332 332 331 326 321 322 318 316 316 315 315 315 313 317 318 313 314 311 311 305 308 304 307 309 307 305 306 305 304 304 304 304 306 304 303 303 304 303 304 303 307 309 309 308 307 310 314 314 316 317 320 322 324
314 315 315 316 317 318 319 320 321 322 323 324 325 324 325 325 325 325 327 328 329 329 329 329 328 325 324 319 314 305 319 328 329 330 331 331 328 324 323 323 321 318 317 317 317 320 316 315 317 318 317 314 311 308 307 308 308 309 308 307 307 305 304 305 305 305 305 307 305 303 303 304 303 302 302 308 309 309 307 307 314 314 312 315 318 319 322 323
313 314 314 315 316 317 318 319 320 322 322 324 325 325 325 325 324 325 325 328 328 329 329 328 326 324 319 319 310 306 324 327 328 329 329 325 321 320 321 321 321 318 318 317 315 318 319 319 320 320 319 313 311 306 306 308 309 307 307 305 304 304 306 305 305 303 306 305 305 305 304 306 304 303 303 308 309 306 308 309 309 313 313 314 317 319 322 322
313 313 314 315 316 316 318 319 319 321 322 323 324 324 324 324 324 324 324 325 328 328 328 328 325 325 322 316 311 313 325 326 328 327 328 325 322 320 321 321 320 320 319 314 317 320 321 323 324 317 311 316 308 308 306 309 309 306 306 304 304 304 304 305 305 305 305 305 306 307 304 303 303 302 307 309 310 307 308 309 309 309 312 314 316 319 321 322
313 313 313 315 315 316 317 318 319 320 321 323 324 324 324 324 323 324 324 323 326 328 328 325 325 325 317 307 315 322 324 328 327 324 323 322 320 322 322 323 320 320 321 318 317 319 325 323 322 317 317 313 311 308 311 311 306 307 307 308 305 305 305 307 306 306 304 306 306 307 299 305 308 308 308 310 310 309 307 308 309 309 310 312 315 317 319 321
312 313 314 315 315 316 317 318 319 320 322 323 323 323 323 323 323 324 324 323 325 328 327 325 325 323 315 309 317 321 325 328 327 323 321 323 320 318 322 324 323 320 321 320 321 320 322 324 322 319 317 313 309 312 309 306 306 306 306 307 305 304 304 305 306 305 304 306 305 307 300 305 310 312 310 310 310 309 307 309 310 311 311 311 312 313 315 318
311 312 313 314 315 316 316 317 318 320 322 323 323 323 323 323 323 324 324 323 325 328 327 326 323 315 308 312 321 324 325 328 321 321 322 319 318 316 317 321 322 324 321 321 319 321 322 323 318 313 310 310 311 308 305 306 306 307 303 301 305 303 305 305 305 305 306 304 306 305 300 304 309 313 311 311 310 309 308 309 310 311 311 311 311 311 312 313
312 311 312 313 314 315 316 317 318 319 321 322 322 321 321 322 322 323 324 323 325 326 327 319 316 316 309 306 315 326 323 317 318 322 325 321 319 315 319 319 320 321 322 318 319 319 320 319 313 313 310 307 307 307 305 304 303 304 304 302 300 303 304 303 304 306 308 304 304 305 303 307 308 310 309 307 307 307 307 308 309 310 310 311 310 310 310 311
312 312 312 312 313 314 315 317 318 319 320 321 321 321 320 321 322 323 323 324 325 326 318 312 314 317 303 313 322 313 313 319 324 322 323 324 321 319 317 316 315 317 319 319 319 318 317 312 313 311 314 307 308 308 301 299 300 300 304 302 302 300 303 301 304 305 306 305 303 304 303 306 310 307 307 306 307 307 306 307 308 309 310 311 311 311 311 311
312 312 312 311 312 314 314 316 318 319 319 320 319 320 320 321 323 322 321 320 316 315 315 317 315 308 305 309 303 309 318 318 320 321 322 324 322 319 317 312 314 315 315 313 316 311 314 310 311 305 306 306 306 305 299 293 298 299 299 299 297 301 303 303 303 305 304 303 303 304 302 304 308 311 310 308 305 306 307 308 309 310 310 311 311 311 311 312
311 311 312 312 312 314 314 315 318 319 319 320 321 322 322 322 320 318 313 310 308 302 300 301 303 295 288 303 312 317 317 320 322 321 317 319 321 320 319 319 315 311 307 307 307 309 312 308 309 304 299 301 303 304 301 302 303 302 301 301 301 299 300 302 306 302 304 302 300 302 301 302 305 307 309 310 308 307 308 309 310 310 311 311 311 312 312 313
311 311 311 312 311 314 314 315 316 319 320 318 317 316 312 305 302 300 306 308 305 305 307 305 309 309 307 310 310 319 322 322 314 317 319 321 318 316 315 315 310 311 305 300 305 307 311 301 298 298 301 303 305 306 306 304 305 304 303 302 301 301 302 303 303 302 303 302 302 303 303 304 305 307 309 310 310 309 308 308 309 310 311 312 312 313 313 313
310 311 311 311 312 314 314 315 315 316 319 316 314 307 298 299 296 291 299 304 307 304 308 308 310 308 307 311 314 314 309 310 316 314 317 322 319 314 309 310 306 300 303 304 302 310 309 300 299 303 305 305 306 307 306 304 305 303 302 301 300 301 300 303 304 302 303 302 302 302 302 303 304 306 308 309 308 306 307 308 309 310 311 312 312 312 313 314
310 310 311 311 312 313 314 315 315 315 319 317 312 304 306 307 313 310 307 297 303 304 308 310 311 308 312 315 317 319 315 307 308 312 319 320 314 308 307 307 303 299 304 303 302 300 297 296 302 305 306 307 306 305 305 304 302 303 301 301 300 300 302 302 302 302 302 301 301 303 301 303 305 307 309 308 307 308 309 309 310 311 311 312 312 312 313 314
310 310 310 311 311 313 314 314 315 314 315 310 306 307 306 313 318 319 314 305 300 305 307 306 306 308 309 315 316 316 308 305 303 309 312 316 311 309 308 304 303 302 303 301 295 293 290 295 301 302 305 305 304 304 304 303 303 301 300 299 297 301 298 296 302 302 301 302 300 299 299 301 304 306 307 309 308 308 310 310 310 311 310 311 312 313 314 314
310 310 311 311 312 312 314 314 315 312 310 310 309 309 313 315 317 314 306 296 293 300 304 307 309 310 308 306 313 312 307 306 308 304 317 314 307 311 307 305 303 302 298 300 297 293 292 301 304 301 301 304 301 303 302 300 298 302 302 300 298 298 300 300 299 300 300 300 298 299 298 299 303 302 305 309 310 308 309 310 310 311 312 313 314 314 314 313
310 310 310 311 311 313 313 314 309 306 312 310 309 312 314 317 316 313 302 296 297 297 305 303 301 309 310 312 314 310 307 307 309 312 315 314 309 307 305 310 305 298 300 302 300 296 296 302 305 301 300 301 302 300 301 301 297 299 302 302 301 301 300 300 301 300 299 298 299 299 293 294 301 303 303 307 307 306 308 308 308 310 311 312 311 312 313 314
310 310 311 310 311 312 314 306 304 310 308 306 310 311 315 316 315 312 301 289 285 293 301 292 310 300 316 306 310 307 309 301 307 313 315 315 317 308 307 304 305 297 301 301 298 298 298 303 303 301 300 299 301 300 302 303 298 296 298 305 304 302 301 301 300 299 294 290 297 298 292 289 301 300 303 305 306 306 307 307 308 309 310 310 311 312 312 313
310 310 310 310 310 312 303 299 309 308 300 304 310 312 313 313 312 309 295 282 282 293 291 301 301 302 311 307 309 308 292 295 308 312 312 312 308 313 303 299 301 304 304 303 298 293 299 300 301 302 300 299 297 297 302 303 299 295 305 304 304 302 301 300 301 299 297 302 301 296 299 292 292 298 304 305 304 304 305 307 308 309 310 310 311 312 313 314
310 310 310 310 310 310 306 308 305 302 304 309 312 312 311 309 310 306 291 275 274 298 291 295 299 311 307 304 309 302 302 306 298 304 313 312 312 307 304 299 298 299 300 299 287 301 299 297 299 298 298 297 295 299 303 304 299 299 301 305 303 302 302 302 301 299 300 297 292 297 298 292 291 298 302 303 300 302 303 305 307 308 310 311 312 313 314 315
310 310 309 310 310 310 311 309 305 304 310 312 313 311 309 309 306 294 280 274 289 289 308 294 310 304 303 305 299 298 302 306 299 305 309 310 309 307 300 301 301 301 301 299 293 293 297 300 300 300 297 294 298 300 303 304 298 301 300 300 303 304 303 302 299 298 297 293 287 293 297 290 291 298 299 300 300 300 302 304 306 308 310 311 312 313 315 315
310 310 310 310 309 308 309 311 309 313 312 313 312 309 309 305 295 283 277 270 290 280 296 297 298 294 301 296 294 294 298 300 303 305 306 303 306 308 303 311 303 300 297 299 296 295 299 303 303 300 296 299 299 301 302 304 303 301 302 299 297 296 295 295 296 294 291 285 289 295 297 294 287 296 298 298 299 302 303 305 307 308 310 311 312 313 313 312
310 310 310 310 304 307 306 302 307 313 312 311 309 307 303 296 284 277 272 279 292 289 298 294 292 301 295 293 289 295 298 300 300 302 298 303 301 304 304 300 306 298 296 296 295 297 299 299 298 302 304 303 302 298 302 305 302 303 299 295 296 292 294 291 289 291 285 284 292 297 296 296 285 292 297 302 304 303 304 303 305 306 308 310 311 311 312 311
310 310 310 310 308 309 303 300 308 311 311 309 307 301 295 279 283 276 273 295 280 286 287 288 296 295 295 297 294 294 294 297 301 300 297 297 296 296 297 291 296 287 286 288 288 297 294 295 299 301 304 301 298 297 299 301 300 300 298 296 289 285 286 283 286 281 284 285 292 297 297 292 290 295 299 302 303 304 304 305 306 307 307 309 310 312 313 313
310 310 311 310 309 306 308 310 311 311 309 308 302 297 286 279 272 281 282 285 279 292 287 296 293 294 295 294 292 296 299 293 300 300 301 299 297 297 300 299 299 295 286 291 290 289 291 298 297 297 300 302 300 291 292 292 297 297 294 291 286 284 282 281 284 286 287 290 295 294 298 290 295 298 303 302 305 306 306 307 307 307 308 308 310 311 311 313
310 310 307 308 309 310 311 311 311 311 307 304 297 289 285 277 276 287 283 283 284 294 294 293 295 295 295 289 292 296 291 297 298 297 300 296 296 292 295 299 300 296 296 292 288 288 284 283 291 295 290 302 299 297 296 294 296 295 298 294 288 287 284 281 284 281 283 287 290 295 289 286 289 294 300 304 305 307 308 308 308 308 308 309 310 311 310 310
310 309 308 308 309 311 310 310 310 309 305 299 290 285 277 277 283 279 281 280 287 292 290 296 292 292 290 293 295 296 295 290 297 297 295 294 290 294 293 294 299 300 299 289 292 291 288 290 296 300 300 301 296 300 301 299 296 296 297 296 290 286 291 284 286 286 286 288 286 288 288 295 294 302 300 302 303 303 303 305 306 307 308 309 309 309 309 309
308 306 307 305 305 308 309 310 309 308 300 292 285 281 278 281 278 285 283 291 291 289 290 293 292 287 287 288 293 293 297 293 295 295 292 294 296 293 297 297 297 299 296 290 293 286 290 287 298 299 302 298 298 300 299 301 285 294 295 287 291 301 296 287 286 286 286 286 284 291 291 295 300 301 303 304 303 303 304 305 305 305 306 307 307 308 308 309
302 304 301 302 305 308 309 310 308 304 298 290 284 279 284 281 285 287 290 290 291 293 290 283 285 285 284 284 287 291 292 297 294 292 287 295 291 296 296 297 302 300 300 298 292 297 289 289 298 298 295 299 302 302 301 301 302 297 288 292 300 302 299 290 282 286 284 281 284 290 288 291 292 288 301 301 301 303 303 304 305 306 307 306 307 308 309 310
302 302 302 302 305 308 309 309 307 301 295 288 283 285 283 283 288 288 292 294 294 294 289 287 287 291 284 286 285 289 293 290 289 292 287 293 287 298 296 296 301 301 301 301 295 295 297 287 292 298 299 300 302 302 299 300 298 298 295 304 292 285 284 288 286 279 279 279 282 287 290 290 292 292 297 298 299 299 300 303 303 304 305 306 308 309 310 310
303 300 292 302 308 309 308 308 303 296 290 285 284 282 284 286 289 291 294 295 295 292 288 289 286 288 289 286 288 291 292 286 291 289 287 290 286 297 296 299 297 301 302 300 296 297 297 286 290 297 298 298 299 297 286 292 298 299 300 297 299 295 290 286 286 288 287 281 282 283 289 286 295 295 298 299 301 302 301 302 303 304 305 306 307 309 309 310
298 293 289 304 308 308 308 305 297 293 287 283 284 283 287 285 288 293 295 296 291 291 287 289 291 287 289 289 291 287 291 292 290 289 291 292 289 299 296 300 297 299 301 301 297 301 292 296 284 293 298 298 288 293 290 294 290 292 293 292 294 291 296 296 293 288 286 283 283 283 283 289 296 301 300 301 302 302 302 302 304 304 306 307 308 308 309 309
299 292 291 305 306 307 305 298 290 285 285 285 285 284 285 285 289 292 295 296 289 291 291 290 290 287 289 288 288 293 289 291 291 289 290 291 290 287 297 298 300 297 301 300 297 298 291 290 284 290 289 289 293 298 298 298 297 294 293 291 293 290 287 284 282 292 288 286 283 283 282 290 298 301 302 302 303 303 304 304 304 305 306 307 309 310 309 310
293 286 289 304 306 305 297 286 285 287 285 284 282 285 286 293 290 290 291 292 291 290 292 290 291 291 291 290 291 291 290 289 290 290 291 290 293 293 296 301 300 301 297 293 294 300 298 295 290 287 289 292 295 295 298 298 300 298 297 294 297 294 294 288 282 286 289 289 292 287 285 288 300 300 301 301 302 302 303 304 304 305 306 307 308 309 310 309
292 289 300 304 305 301 292 286 287 286 285 287 291 291 292 289 289 290 290 290 287 288 288 288 289 289 290 291 292 291 291 288 290 289 291 292 293 293 294 299 302 300 300 297 299 298 296 289 287 289 293 294 293 296 296 295 298 296 297 298 297 292 293 291 290 291 287 289 286 286 283 289 299 303 302 302 302 303 303 303 303 304 305 305 306 308 307 307
293 292 294 302 304 299 290 281 281 283 284 286 288 287 290 289 290 289 290 289 290 287 287 287 287 293 290 292 293 289 293 284 291 291 289 291 291 295 296 299 302 299 298 296 293 299 290 292 290 285 285 286 288 289 290 289 295 292 294 296 297 297 297 295 291 289 286 288 289 286 280 287 298 301 302 301 302 301 300 300 301 302 303 305 305 305 305 305
291 293 294 296 300 297 286 287 285 284 284 284 285 285 288 288 289 291 291 287 288 288 289 287 289 291 290 294 291 293 293 290 286 292 292 291 291 291 296 299 301 300 301 302 298 302 292 292 289 282 278 276 276 278 281 286 288 292 295 296 297 296 294 292 286 287 281 287 290 286 285 293 298 300 300 300 299 299 300 300 301 301 302 303 304 306 305 306
288 281 285 287 292 289 288 291 289 287 285 285 284 286 288 286 288 290 292 287 287 289 289 288 291 292 289 290 288 288 289 290 289 287 289 289 291 291 294 298 299 300 297 297 299 300 289 291 291 289 286 283 285 288 293 294 293 288 290 293 294 296 296 294 292 288 285 288 287 289 291 292 294 297 298 300 301 301 302 302 301 302 302 302 303 303 304 305
291 285 283 280 286 286 286 289 288 289 285 288 283 286 284 287 288 288 290 288 289 289 288 289 289 287 286 287 286 286 290 287 287 288 289 290 290 292 293 297 298 298 294 296 299 296 288 288 290 291 291 291 292 291 293 292 289 292 291 291 294 294 295 292 287 285 293 288 284 291 294 291 293 296 298 299 301 302 302 303 303 303 303 304 306 307 302 304
285 285 287 289 285 281 283 285 288 288 289 289 284 288 286 285 286 285 287 288 289 290 288 288 288 289 290 288 288 284 286 284 287 285 290 290 290 292 291 293 295 294 296 298 301 296 289 286 291 291 290 292 293 292 287 291 290 290 292 292 292 294 294 289 289 292 292 286 284 292 294 292 294 297 299 300 301 301 302 303 305 305 305 305 304 303 304 305
289 287 288 290 286 286 288 287 289 288 287 288 286 287 285 285 285 286 285 286 289 288 290 284 287 289 289 291 289 285 285 282 282 288 287 287 289 290 288 290 293 295 297 296 294 292 293 287 290 291 289 291 291 291 292 287 288 290 290 292 293 294 293 294 293 295 294 291 293 294 294 294 297 299 300 302 304 304 303 304 303 302 302 302 303 303 304 304
286 287 284 291 291 288 288 288 287 287 285 288 284 285 286 285 284 285 287 288 285 286 290 288 288 289 289 290 289 286 287 288 287 283 289 289 286 291 290 291 289 292 296 294 293 292 292 287 291 290 286 287 290 292 292 291 289 287 289 290 291 291 291 293 294 294 295 294 294 293 293 293 299 302 301 303 304 305 303 302 302 303 302 300 301 301 302 303
290 291 294 289 285 287 288 287 286 286 285 286 284 285 286 286 285 288 285 287 287 285 287 288 289 288 290 289 289 289 292 291 291 290 291 291 287 292 290 288 294 290 293 292 293 292 292 287 293 289 284 284 288 289 290 290 290 288 288 289 290 289 287 289 289 293 292 291 293 293 290 291 298 301 302 303 303 302 301 302 302 303 301 299 300 301 303 305
293 293 295 293 286 289 286 288 287 286 283 286 286 286 286 287 288 289 285 288 287 290 291 290 290 289 288 289 288 290 292 291 295 295 294 296 296 290 288 290 294 292 291 291 295 290 290 288 286 286 282 282 287 289 288 287 285 282 284 288 290 291 291 292 292 293 293 294 290 287 289 296 298 300 299 300 300 299 300 301 302 301 301 302 303 303 304 304
Wind_Speed
20 19 19 17 17 17 17 18 20 20 21 20 20 19 18 18 18 19 18 18 17 14 12 14 17 14 13 15 14 13 14 11 10 11 11 11 10 7 3 10 10 8 8 8 8 9 8 8 6 3 3 4 1 3 2 1 2 2 6 6 8 7 6 5 6 7 4 2 6 8 9 8 7 5 4 3 4 2 3 5 3 2 6 5 3 3 2 6
20 20 19 18 18 18 18 17 18 20 22 21 19 20 20 19 19 19 18 17 17 16 13 12 15 18 14 13 15 15 14 13 15 15 19 7 7 8 4 8 9 10 9 9 12 12 10 9 7 7 5 4 1 1 1 3 2 5 3 4 9 5 1 2 1 5 2 1 2 5 5 7 3 9 5 6 6 7 6 6 5 6 8 7 5 4 6 9
21 21 20 19 19 19 18 17 18 20 22 22 18 19 20 19 19 18 18 17 17 17 15 12 11 12 16 11 15 17 13 12 12 20 19 8 9 9 7 7 10 11 13 11 12 12 12 11 9 9 5 4 1 3 4 3 4 1 4 8 10 2 2 2 2 3 1 3 2 5 4 5 1 2 5 6 4 5 9 7 6 8 10 11 8 6 8 10
22 21 20 20 20 20 19 18 19 20 21 19 18 18 20 20 18 18 17 17 16 16 15 13 11 11 12 14 8 11 11 4 14 7 11 13 9 12 10 9 10 9 3 3 4 8 3 7 9 9 4 6 3 1 6 4 5 4 5 9 3 3 3 2 3 2 0 3 2 2 3 5 2 1 5 4 6 8 9 9 8 9 10 7 9 9 9 11
23 22 20 21 20 20 20 19 19 20 21 20 19 19 19 20 18 18 17 17 16 17 16 13 10 11 15 12 11 3 4 8 5 9 13 15 13 11 12 11 10 7 7 5 5 5 8 10 9 5 6 6 4 4 7 5 2 5 8 2 2 2 5 3 1 2 1 1 1 2 6 5 4 1 6 6 9 5 5 5 9 9 4 4 8 9 9 11
23 22 21 21 21 21 20 20 20 19 22 22 21 20 19 20 19 18 18 17 18 17 16 13 11 11 10 13 10 6 3 10 1 4 7 18 15 13 14 13 10 8 8 10 9 8 11 10 11 8 7 6 9 9 6 5 4 8 5 3 2 0 3 3 0 2 3 2 4 4 2 3 6 3 4 7 12 2 4 5 1 4 1 1 4 9 10 11
22 22 21 20 21 21 20 20 20 19 20 22 20 18 19 19 20 19 18 18 18 17 16 14 13 12 14 12 3 7 8 7 2 2 4 15 19 16 15 12 10 8 10 10 10 11 13 12 13 10 9 9 7 10 5 7 3 7 6 5 5 3 5 2 1 2 2 3 2 2 2 5 4 9 2 7 12 4 3 2 4 3 2 1 5 9 11 13
21 21 21 20 19 20 20 19 19 19 20 21 20 21 21 19 18 19 18 18 17 17 16 16 15 15 15 9 9 6 7 7 4 2 7 11 17 15 13 10 11 9 11 13 13 14 14 15 15 9 10 11 5 11 7 6 6 9 8 5 3 2 3 1 1 3 2 1 1 2 4 5 6 2 1 8 12 10 6 3 2 1 2 4 7 9 10 11
21 22 21 20 19 19 21 20 20 19 19 21 22 23 21 20 19 18 19 18 18 17 17 16 17 20 16 6 8 5 11 3 4 7 4 15 16 15 15 10 10 12 9 10 14 11 15 13 12 13 7 13 6 12 7 9 8 9 7 5 4 4 2 1 2 2 2 1 2 4 7 2 1 3 7 11 10 2 1 5 4 3 4 6 9 9 10 11
23 22 22 22 20 20 21 20 19 20 20 21 22 23 20 18 20 18 20 19 19 17 18 17 18 20 13 8 4 11 2 7 4 5 3 11 11 11 15 13 13 10 9 7 6 6 11 8 11 4 3 2 5 5 6 11 1 9 7 5 6 3 3 2 5 3 1 2 4 7 7 4 3 3 7 6 9 1 4 6 3 6 9 8 7 7 9 10
25 24 23 22 21 22 21 21 21 20 20 21 20 20 21 19 20 19 19 20 20 18 17 19 20 17 12 9 9 13 3 5 2 3 5 8 12 11 6 12 13 12 11 5 8 15 9 6 5 5 2 2 7 3 8 4 4 4 6 4 3 2 2 2 2 3 2 4 6 5 8 2 3 4 11 3 4 2 6 8 6 6 8 8 8 8 8 9
25 25 24 22 22 23 22 22 22 21 22 22 22 21 21 19 20 19 19 20 21 20 19 19 24 10 7 12 13 8 6 7 3 4 3 8 4 3 6 5 9 12 11 10 8 5 6 10 6 4 5 6 6 6 6 3 3 5 8 6 5 3 7 7 8 5 4 4 5 2 7 12 9 11 9 11 7 3 5 6 7 9 9 9 8 7 7 9
25 25 25 22 22 23 23 23 23 23 22 22 22 22 21 19 20 19 19 20 21 21 21 20 17 11 9 9 10 3 4 7 7 8 6 6 7 6 4 4 2 3 10 13 10 6 6 10 10 6 1 6 6 4 4 5 3 5 3 6 4 6 8 9 4 3 6 3 6 3 10 11 15 17 11 11 10 7 7 10 10 8 8 8 7 7 7 7
25 23 24 23 22 23 23 23 23 23 22 23 22 21 20 20 21 19 19 21 21 22 20 22 12 12 10 8 1 2 4 9 10 8 9 4 8 5 8 5 5 2 4 4 5 4 4 6 12 7 5 1 5 3 8 4 3 8 4 2 9 8 9 7 7 9 9 5 7 5 12 12 10 5 9 10 10 10 13 13 14 13 11 9 7 7 8 9
24 24 25 23 23 22 23 23 24 24 23 23 22 21 20 21 20 18 19 21 21 22 21 20 10 7 6 5 2 2 4 8 13 10 8 11 10 8 7 7 8 5 4 5 6 5 7 7 10 6 5 3 4 7 5 5 5 5 6 10 9 11 5 3 4 10 12 4 6 8 10 14 14 10 7 9 11 12 14 14 14 14 13 11 8 7 8 9
23 22 23 24 23 23 23 22 23 24 22 21 23 21 19 19 20 19 22 23 21 21 16 14 10 9 4 10 4 11 10 14 14 14 7 13 8 8 10 7 5 7 6 5 4 4 7 11 7 4 8 3 10 8 6 5 5 6 12 9 12 9 9 1 8 8 8 4 7 13 9 6 10 3 1 0 5 7 10 11 12 14 14 12 9 7 7 8
23 24 24 25 24 23 23 24 23 22 22 23 22 20 20 20 20 20 21 23 16 13 9 7 9 10 12 3 6 15 10 6 12 9 7 6 12 12 10 10 5 6 9 8 6 9 8 10 1 2 3 8 9 10 9 11 11 9 8 11 4 9 10 8 6 6 6 6 9 13 12 16 12 3 3 1 5 8 9 12 14 13 12 10 8 8 9 9
24 24 25 26 27 23 23 23 23 23 22 21 22 19 18 21 22 20 20 13 7 5 3 4 9 3 7 4 11 9 11 9 13 13 10 6 14 12 8 4 4 10 9 7 6 8 4 6 5 9 7 8 10 13 15 16 16 13 10 9 4 4 10 10 8 6 9 8 10 11 15 15 18 14 7 4 2 6 10 11 11 11 10 9 8 9 10 10
26 25 24 25 26 24 24 24 24 22 22 22 24 21 18 18 13 9 9 9 9 6 8 10 14 16 2 13 6 13 9 9 12 18 13 13 8 8 5 4 11 12 5 6 1 1 3 5 4 8 14 13 17 20 17 4 8 14 12 11 9 9 10 9 5 4 6 8 9 12 12 12 20 17 15 12 7 7 10 11 11 12 12 12 13 13 13 13
26 25 25 26 26 24 24 23 25 24 23 17 15 11 9 10 6 5 5 13 17 11 4 15 11 6 5 12 10 8 11 15 15 11 17 14 14 11 10 9 2 4 10 6 0 2 2 13 13 15 17 16 16 17 16 2 6 8 10 10 10 9 7 3 1 3 1 3 10 12 12 14 18 17 14 12 10 9 13 16 17 16 15 14 14 15 15 16
27 26 26 27 25 23 25 26 25 26 25 17 16 11 12 16 12 6 11 7 8 6 3 13 9 4 5 10 9 19 14 5 8 13 17 14 15 18 11 9 9 6 9 11 6 2 3 11 15 15 14 15 17 17 12 4 8 10 9 10 9 10 10 8 8 5 2 5 5 4 9 13 16 17 15 14 11 12 15 17 18 18 17 14 16 17 16 15
26 27 27 28 26 26 26 25 24 27 25 16 14 12 4 19 4 10 16 11 9 4 5 11 10 5 4 8 8 12 8 8 13 15 10 14 17 15 11 11 13 12 9 11 6 1 3 11 9 7 2 9 9 9 7 9 6 9 10 8 9 10 7 3 2 2 3 2 11 8 13 14 16 19 17 14 13 13 15 16 18 17 17 15 14 16 15 13
26 25 27 26 27 25 27 27 23 30 18 17 12 17 13 5 4 7 11 7 9 2 8 13 13 10 10 10 10 1 14 13 15 17 14 12 17 16 15 12 12 11 11 16 13 9 7 8 3 2 4 8 7 10 10 10 10 7 9 10 10 5 7 6 6 4 4 5 4 2 10 12 14 17 21 17 14 14 17 17 18 16 16 19 19 15 12 15
26 26 26 28 27 26 26 24 23 22 19 17 15 19 6 10 11 16 16 7 6 3 6 7 6 8 13 12 6 11 13 7 15 22 12 16 20 15 13 18 16 13 14 18 20 15 11 3 6 4 2 2 10 12 14 12 11 11 13 13 11 6 9 7 1 2 3 5 2 8 11 14 14 16 17 15 15 16 16 16 17 16 15 16 15 12 14 18
25 26 27 28 27 26 23 21 14 18 16 17 19 11 9 11 13 17 15 5 1 4 1 4 1 3 6 3 7 11 2 1 2 12 12 18 20 15 14 13 13 14 16 14 15 12 9 4 4 7 3 2 6 9 15 14 12 11 15 14 13 8 9 3 4 4 6 8 6 4 10 13 11 17 18 12 5 8 10 13 14 15 15 14 14 17 16 15
25 26 25 27 25 26 22 13 12 17 17 17 10 12 12 13 9 9 12 3 9 5 6 11 5 9 5 6 8 4 8 6 2 8 8 4 1 8 9 11 5 18 17 17 11 4 9 6 8 8 7 5 8 8 9 13 12 12 10 14 12 10 10 8 5 3 9 11 2 2 8 13 3 9 10 8 8 7 6 9 12 12 11 11 12 13 13 12
25 26 27 26 27 27 15 9 11 17 17 15 11 15 12 12 14 14 10 1 9 9 16 4 7 4 0 9 10 15 12 7 3 3 10 3 6 5 12 8 5 0 7 6 2 8 7 11 11 10 9 8 6 10 8 9 8 8 3 13 13 11 11 9 9 10 10 4 1 4 7 12 13 12 10 9 11 11 11 12 11 11 11 12 12 13 13 12
26 27 27 28 29 29 9 8 15 19 15 10 14 13 16 7 13 9 1 8 7 13 10 7 2 1 3 5 6 8 3 20 11 8 5 2 2 1 3 16 13 14 11 10 16 2 16 13 14 13 11 9 9 8 2 8 6 1 5 10 17 15 15 12 11 9 4 4 13 11 6 9 13 5 5 9 13 12 13 11 12 13 15 16 17 16 15 14
26 27 28 27 29 33 14 8 15 18 12 15 16 15 13 11 11 11 4 5 1 5 2 10 5 7 10 10 5 4 3 4 5 10 6 5 5 1 8 14 14 17 12 14 11 3 2 12 13 10 9 10 11 10 5 7 8 2 3 9 3 8 9 10 9 9 5 6 15 14 11 11 17 7 5 6 7 13 7 8 10 12 15 17 17 16 13 11
26 26 28 26 23 20 13 8 10 12 14 15 18 17 20 14 7 8 8 6 3 5 7 5 10 11 15 14 6 4 6 2 4 7 5 4 4 1 4 2 13 14 9 2 7 4 3 2 8 9 11 12 6 4 7 7 2 4 7 3 2 3 3 3 2 5 3 14 18 17 14 12 13 5 10 7 7 4 4 6 8 12 14 17 16 12 11 11
25 26 26 26 17 12 14 12 13 10 20 15 20 23 16 11 8 9 10 3 6 1 8 12 9 18 19 19 12 1 7 8 11 12 4 2 3 3 9 6 3 10 9 6 4 6 4 6 6 3 5 3 7 4 1 5 6 5 3 0 2 1 2 4 1 3 9 10 15 12 15 14 15 3 2 7 3 3 8 10 10 12 13 13 10 10 10 8
25 25 27 19 12 11 17 13 13 11 17 24 25 19 16 10 1 10 7 4 9 9 14 13 15 16 23 14 9 11 12 7 12 15 12 9 7 8 10 8 11 8 11 10 8 7 8 9 4 3 5 12 9 9 3 5 6 7 5 4 8 3 5 7 5 11 10 11 1 8 13 8 19 21 9 7 7 7 9 10 11 11 12 11 12 11 8 5
25 23 26 18 16 13 14 9 14 15 19 27 19 15 11 8 12 4 8 10 2 13 7 16 21 24 23 20 14 14 5 12 12 15 14 12 12 10 14 9 12 2 9 13 12 11 7 7 9 5 3 7 10 12 10 9 11 12 13 11 10 8 7 10 8 0 2 5 3 8 12 10 11 18 16 22 18 18 18 11 10 13 14 15 16 14 10 8
25 20 15 17 17 12 10 14 14 21 21 20 18 12 8 8 7 7 11 3 6 7 15 15 21 17 24 15 19 16 10 6 15 11 15 11 11 11 10 2 10 5 4 12 11 9 8 9 10 13 8 11 13 9 14 8 16 13 9 9 7 2 3 6 5 8 7 6 3 7 6 4 4 5 7 4 5 11 12 15 15 15 16 17 15 11 13 14
26 20 16 15 14 12 13 16 18 24 16 16 17 15 14 7 6 13 8 4 4 14 17 18 19 23 15 13 14 11 2 7 10 14 12 12 11 8 10 11 10 3 6 13 6 6 13 2 10 18 8 17 15 14 5 7 7 10 8 3 5 10 2 3 1 2 1 4 3 4 6 5 14 4 5 5 2 2 6 10 11 15 13 10 11 13 12 12
19 12 14 10 11 10 17 15 19 21 20 13 13 8 13 4 7 4 8 9 12 16 19 18 16 15 12 9 12 12 2 5 12 8 6 11 10 16 12 9 13 12 11 9 9 7 7 8 11 11 8 19 19 12 8 9 9 9 8 10 11 1 1 3 1 0 2 4 6 4 5 9 11 20 18 16 10 13 11 12 13 11 10 8 9 11 12 11
12 14 12 12 15 15 17 18 17 17 18 14 12 8 2 3 3 10 7 13 15 23 22 21 14 14 15 10 8 14 5 9 13 8 7 10 5 10 13 7 9 12 10 6 5 4 10 5 10 15 11 15 15 16 12 9 3 7 9 10 5 5 2 4 7 0 3 6 4 5 8 9 7 11 5 7 12 8 10 15 15 12 9 9 8 9 10 10
11 11 9 12 14 18 18 19 20 17 13 14 11 7 1 4 3 5 3 12 14 12 14 6 7 12 18 18 19 18 16 13 15 10 9 14 4 12 11 10 12 11 14 3 4 6 4 6 4 12 14 10 8 10 9 2 5 4 5 8 10 5 9 4 3 11 8 9 6 8 13 14 12 17 7 10 12 8 8 9 10 11 10 11 11 13 11 10
10 11 8 11 14 19 17 20 17 15 13 12 9 7 2 2 1 7 10 10 12 18 17 7 14 9 13 15 14 19 25 13 20 15 12 11 6 14 16 11 12 15 14 6 4 3 5 5 5 3 6 9 9 10 13 11 4 2 3 9 1 1 1 10 9 1 5 9 5 9 11 10 12 16 16 14 17 8 9 8 9 9 8 8 9 7 8 8
11 7 1 15 17 16 16 17 16 14 10 13 9 2 3 5 3 5 9 16 9 8 1 11 8 11 13 11 20 15 15 11 19 13 7 11 5 10 18 13 9 14 13 9 3 2 3 2 4 6 2 7 8 6 13 13 14 7 7 8 4 3 1 2 2 7 3 5 9 7 11 7 13 13 14 15 17 5 7 9 10 10 11 12 9 8 8 9
7 5 4 14 19 17 16 13 11 10 11 4 5 5 6 6 6 5 7 5 6 6 3 8 12 10 16 16 12 12 9 12 12 13 7 10 10 6 9 13 9 15 14 11 8 3 3 7 8 5 5 8 4 7 6 11 13 12 12 12 13 11 6 9 6 3 5 6 5 7 14 9 10 3 7 10 11 7 8 9 9 10 10 9 7 8 8 8
8 7 4 16 21 23 16 10 2 3 4 11 10 6 7 6 8 10 8 4 6 4 4 6 7 9 12 11 11 15 11 14 15 13 8 9 12 1 6 10 8 13 14 10 11 4 2 2 5 6 6 8 6 4 3 4 7 11 9 11 10 8 6 5 11 8 5 7 3 1 6 13 12 5 5 8 6 7 7 7 9 7 9 8 8 8 7 7
5 6 9 17 18 22 15 8 3 5 5 6 9 9 7 4 8 5 13 2 3 2 3 3 7 10 3 6 12 9 13 9 16 11 9 7 6 5 2 12 12 17 12 7 8 4 2 2 5 3 1 2 3 2 5 6 1 9 10 8 8 11 12 10 8 1 5 6 9 7 9 12 16 4 10 6 7 6 4 5 9 9 7 8 8 8 9 8
8 12 8 10 15 17 15 9 10 8 8 7 7 6 2 5 9 10 9 4 5 3 3 4 2 5 9 3 12 13 13 6 6 8 5 2 4 3 9 13 18 11 14 11 13 12 7 6 8 9 5 2 2 1 2 1 2 3 6 12 13 13 15 10 5 2 4 9 9 8 15 9 14 7 10 7 6 5 5 5 5 7 5 6 7 8 8 9
8 5 8 5 5 4 7 3 15 14 12 15 13 11 11 6 4 3 10 5 3 4 5 3 3 7 5 8 9 8 8 3 6 5 5 6 4 3 5 14 16 11 5 5 5 9 6 6 11 12 10 10 11 9 10 9 11 7 2 8 13 15 15 9 8 6 8 5 11 9 10 13 21 12 14 7 3 4 6 5 5 5 7 8 7 7 9 7
6 8 1 4 3 3 1 2 3 10 17 14 13 7 12 8 3 1 9 5 1 7 6 7 5 13 9 11 9 10 14 1 6 8 10 9 5 2 2 7 13 10 7 12 11 11 2 1 6 11 12 12 11 8 1 8 7 5 6 11 13 14 16 14 7 10 10 7 13 12 14 16 23 25 21 20 13 17 16 7 7 7 7 9 9 7 7 7
2 9 7 4 4 2 3 3 9 9 10 14 12 9 12 13 9 4 5 5 4 6 4 2 9 12 8 16 13 11 11 6 3 6 11 10 2 3 4 3 6 6 11 9 10 7 2 5 10 9 14 12 11 9 2 5 7 6 9 9 12 14 14 14 12 9 5 9 16 10 13 11 22 28 24 22 15 16 16 13 7 6 7 8 8 8 9 8
4 3 3 5 5 7 9 7 9 11 11 10 4 4 14 17 14 9 2 6 4 5 10 5 5 9 18 13 11 9 10 3 3 9 9 5 7 4 6 3 3 0 8 6 8 5 4 8 11 12 13 14 15 11 3 1 5 8 10 11 13 14 14 14 15 15 13 12 11 10 12 16 23 28 29 24 22 15 16 16 16 11 10 6 7 10 10 9
3 6 4 1 2 6 12 18 16 15 13 10 5 8 15 15 14 5 2 6 7 5 2 8 13 15 18 16 13 9 12 7 6 4 10 10 12 10 5 4 1 1 6 6 3 2 3 9 7 8 11 14 14 12 6 5 8 7 9 9 9 10 15 17 18 18 18 17 15 15 15 20 19 22 26 24 17 8 13 14 13 12 6 7 9 10 10 9
7 9 5 3 6 9 14 12 11 14 10 12 11 9 11 14 11 5 2 7 9 5 2 12 12 12 13 14 11 12 16 6 7 8 8 13 5 7 7 2 5 3 4 6 5 2 4 5 9 3 5 10 12 10 9 10 9 12 13 13 9 2 4 10 14 17 19 22 24 21 21 21 16 18 26 28 20 11 18 22 22 13 8 11 10 10 10 8
2 2 2 12 11 6 12 11 13 14 7 6 6 6 6 10 8 5 5 6 2 5 3 15 15 12 11 12 10 10 12 8 14 15 16 18 13 10 9 4 8 9 6 4 4 2 5 3 4 3 8 9 8 10 11 11 10 12 13 13 12 14 15 15 14 14 15 16 16 19 19 17 15 20 23 25 24 23 22 23 21 13 10 11 12 12 13 13
1 2 2 7 10 13 12 10 8 9 6 5 6 13 10 13 10 11 7 5 5 6 10 14 13 12 5 10 8 8 7 2 9 8 8 4 6 6 1 7 13 14 11 11 6 7 7 5 6 6 10 11 13 10 10 3 4 10 13 15 18 21 19 16 17 15 16 12 14 14 16 15 16 14 18 23 29 28 22 18 15 14 16 15 15 15 13 12
Wind_Direction
240 238 236 235 236 238 238 235 231 231 242 240 234 226 221 217 215 215 207 205 211 210 203 200 207 240 221 207 202 179 151 178 184 192 205 216 204 128 134 185 164 154 163 173 162 169 183 188 178 159 167 221 52 202 76 144 8 230 228 238 238 244 223 154 199 187 29 273 154 178 197 213 189 166 154 165 174 235 126 219 182 213 231 235 105 106 74 137
239 238 237 235 235 237 238 235 226 227 235 240 236 229 223 218 216 212 209 205 207 210 207 203 207 208 237 225 189 169 170 193 203 206 213 155 179 174 138 200 165 155 174 185 176 189 181 191 175 178 179 194 333 150 227 151 270 216 213 245 246 230 56 173 233 183 231 39 117 171 196 232 214 165 159 206 182 188 208 219 210 234 224 208 211 162 158 152
238 238 238 236 234 236 237 236 229 221 224 236 235 232 226 220 217 214 209 204 204 208 204 202 206 204 206 237 193 170 176 205 215 222 215 160 171 173 166 166 171 164 187 195 196 191 196 188 162 176 191 201 172 173 224 138 220 153 230 231 239 51 48 290 294 218 273 357 150 178 185 237 19 217 120 228 194 179 221 212 197 231 239 209 179 166 162 167
238 238 237 237 235 234 234 236 233 225 224 225 233 232 228 222 216 215 210 204 202 204 203 196 193 203 201 213 216 186 177 136 222 210 206 180 171 174 161 152 162 185 204 242 196 195 97 131 167 191 141 225 126 227 191 160 218 137 219 234 261 52 259 155 245 305 241 314 315 181 101 214 211 208 195 202 220 222 234 228 226 224 230 214 159 168 169 174
236 236 235 235 237 234 233 233 232 227 223 224 228 233 228 222 215 213 210 205 203 202 206 196 186 189 199 201 155 51 157 206 224 179 195 184 173 169 159 150 153 173 196 124 142 151 168 162 160 172 188 199 160 179 226 136 319 140 227 298 42 94 239 54 337 56 184 334 250 158 191 203 93 186 223 210 225 230 228 215 215 244 258 145 165 172 177 182
234 234 234 234 236 236 232 232 231 227 223 222 220 227 226 223 217 211 210 206 203 200 200 196 163 164 167 173 157 140 206 219 25 156 344 176 175 167 160 151 142 150 154 168 168 166 169 173 167 175 198 195 187 201 167 170 163 222 183 229 211 25 290 45 66 128 184 181 203 204 215 74 197 216 214 235 237 12 44 23 297 247 14 87 144 160 184 189
233 230 232 233 234 235 233 230 230 227 224 221 220 222 222 223 221 212 209 207 202 199 195 185 160 148 155 138 119 182 226 287 164 43 326 184 169 167 156 138 134 145 166 159 167 166 182 171 187 188 190 204 198 213 146 169 225 242 225 155 194 155 232 52 24 142 200 240 244 11 12 231 158 233 114 228 241 247 76 61 45 35 34 158 176 184 192 195
231 230 230 231 231 233 232 228 230 227 222 220 219 217 221 221 223 213 208 204 202 200 192 182 160 149 136 146 145 231 229 249 343 332 283 185 165 158 145 144 145 149 169 178 168 182 176 180 190 162 201 201 158 200 151 155 190 211 233 173 119 195 215 87 145 185 195 197 51 211 228 236 223 274 107 238 246 238 208 197 259 248 210 198 211 202 208 207
230 229 228 229 230 232 230 228 226 224 222 218 216 216 215 216 220 220 207 202 200 197 192 175 158 155 151 160 168 185 238 116 318 316 224 173 163 152 145 155 165 160 171 180 187 184 180 193 184 174 201 200 160 192 161 190 218 217 216 144 145 179 159 146 169 177 202 166 189 205 241 228 115 28 255 251 253 212 177 227 231 217 220 212 215 214 210 213
229 226 225 226 227 230 230 226 224 220 219 219 214 215 213 208 215 220 218 199 197 193 187 179 155 157 159 168 167 220 180 98 340 336 173 149 137 147 167 161 171 158 154 181 174 131 213 181 191 159 94 65 167 186 155 206 265 178 189 181 191 134 160 144 224 186 196 240 174 240 252 237 107 200 253 206 251 163 216 220 170 215 231 226 222 217 220 223
229 228 224 224 224 227 228 226 223 221 219 216 212 208 212 208 210 213 223 207 192 189 184 177 156 150 181 176 187 223 70 110 312 21 122 124 139 159 156 156 169 167 169 151 183 180 193 94 74 92 317 216 162 143 187 195 97 153 161 136 161 151 190 137 205 187 195 213 195 243 265 254 154 212 240 201 117 193 225 228 207 216 232 232 228 225 221 225
227 227 225 221 222 224 225 224 223 222 220 214 210 209 210 207 206 210 211 219 196 185 182 171 163 162 180 205 210 209 152 112 114 44 29 132 116 77 119 148 169 174 165 168 192 183 139 147 150 142 174 175 180 87 222 133 208 129 162 187 188 226 235 194 221 184 201 236 163 176 273 254 200 236 219 239 249 165 231 247 226 230 235 235 230 226 223 225
225 225 224 220 220 221 221 221 220 221 219 214 207 205 204 201 200 202 205 214 211 187 181 166 164 173 146 218 227 59 168 121 99 100 76 79 95 63 79 96 94 176 181 174 179 174 161 148 143 146 339 171 160 198 90 136 103 138 188 241 167 213 238 199 166 148 195 217 162 162 261 244 237 232 206 218 232 225 242 248 244 233 231 231 222 224 235 230
225 225 221 220 219 220 219 219 220 218 215 210 203 200 202 198 196 200 199 206 203 194 183 165 171 173 171 212 147 196 175 152 114 104 123 108 92 60 61 63 91 111 344 181 95 92 101 151 147 136 31 229 168 143 150 87 166 205 144 211 235 222 231 138 191 162 212 147 173 190 256 264 259 232 195 203 223 229 241 246 250 251 244 238 226 226 237 238
227 222 223 218 218 218 218 218 218 216 212 209 200 198 199 201 195 196 201 207 202 194 180 166 174 131 212 198 88 150 169 157 168 160 162 121 112 94 91 68 73 61 95 114 125 112 100 99 116 144 166 158 132 174 133 170 183 183 169 222 219 223 198 151 182 183 211 151 197 186 255 262 265 257 189 199 213 222 240 243 247 251 253 250 243 233 238 249
225 223 226 225 219 217 217 216 216 215 212 203 200 197 196 196 194 195 201 200 199 187 171 176 180 175 168 211 159 121 158 175 186 161 177 127 139 124 121 98 75 42 86 70 91 104 134 150 164 170 134 137 175 182 156 167 198 204 217 217 212 204 214 185 183 205 232 102 192 206 246 274 271 238 222 56 218 224 241 248 252 253 256 256 254 250 250 254
223 219 218 224 222 220 218 215 211 212 212 208 200 197 193 188 191 193 199 199 194 184 158 169 163 177 203 86 114 163 169 166 142 154 142 138 124 128 118 111 103 75 45 69 116 134 157 160 127 130 256 181 178 186 186 210 210 205 205 224 209 193 207 222 101 216 196 209 205 214 237 246 255 125 110 160 224 227 235 243 247 252 257 262 265 263 255 251
222 219 217 215 219 214 216 217 212 209 208 204 199 191 193 189 188 194 202 188 71 62 99 1 145 111 223 150 170 179 163 147 166 157 151 132 129 136 129 119 103 104 95 62 356 153 204 165 200 191 165 185 179 192 202 211 208 202 191 202 167 186 196 219 207 154 174 202 235 216 228 245 259 258 239 155 141 235 251 256 260 262 263 264 262 260 257 253
223 219 213 215 216 212 213 212 214 206 202 201 197 187 183 173 180 197 183 142 133 136 182 186 170 199 150 179 218 157 174 137 144 152 157 145 139 119 67 88 136 122 99 129 267 151 184 126 185 177 192 189 199 202 209 246 206 207 191 198 207 196 199 211 183 71 210 197 217 229 236 237 254 255 256 243 195 228 256 264 264 260 259 259 261 261 259 256
223 218 215 216 214 210 210 209 213 206 195 195 189 179 164 175 157 177 155 165 193 168 40 152 185 83 95 156 167 120 100 144 137 165 158 157 139 139 127 145 63 102 127 149 82 240 275 179 185 195 201 195 198 204 211 120 208 167 183 193 206 211 214 183 286 91 150 258 238 240 245 254 264 265 265 258 246 239 257 261 261 261 259 256 254 254 253 253
222 218 215 215 207 203 208 208 209 209 194 192 183 175 198 164 169 163 150 146 154 326 189 168 178 122 107 146 139 136 137 119 132 162 167 155 154 142 173 154 153 141 159 148 151 290 315 199 204 208 212 203 205 204 198 150 193 181 191 203 213 216 235 197 210 107 156 235 266 197 260 258 261 268 262 261 246 246 252 256 256 259 258 256 252 255 254 255
222 218 216 215 209 208 206 204 204 210 196 193 191 193 197 186 201 159 146 166 208 306 208 158 141 105 64 114 145 145 135 139 153 160 160 172 161 173 172 182 168 168 147 132 119 223 253 212 196 187 53 195 181 177 189 204 179 201 214 211 225 228 234 65 205 100 131 221 263 270 269 265 262 267 267 253 241 247 250 250 257 262 267 263 257 256 258 258
219 219 215 211 209 204 206 206 202 205 199 198 190 192 203 196 122 113 83 87 167 165 177 156 177 139 146 147 155 227 159 162 163 164 171 178 163 193 161 182 183 150 159 150 163 187 247 260 195 50 52 153 159 181 188 204 211 202 202 212 224 187 170 223 182 150 179 228 288 347 287 276 273 270 269 256 236 240 247 251 257 256 258 262 261 262 266 263
215 215 215 212 206 204 202 204 203 206 207 197 193 197 141 151 144 141 120 162 165 156 193 180 159 150 152 154 178 168 161 172 161 169 177 177 174 161 170 186 169 158 178 171 164 171 193 47 141 112 53 133 165 184 194 201 212 215 220 227 230 155 213 244 147 127 155 227 295 275 276 269 250 255 264 257 225 220 237 246 249 254 251 257 268 269 255 259
214 213 212 212 206 198 200 195 203 213 196 204 202 171 168 139 158 146 115 76 34 190 138 286 202 136 146 14 144 169 145 45 286 161 169 181 169 163 190 174 177 186 180 183 171 174 186 191 136 123 121 223 173 181 200 204 218 214 222 226 231 209 209 128 121 254 250 248 173 243 292 268 242 223 242 256 176 213 228 244 251 256 258 260 260 259 258 248
212 210 210 209 205 200 182 193 211 208 192 204 183 156 159 136 128 125 108 154 185 165 129 205 178 193 144 138 116 116 124 179 328 165 151 216 280 174 140 185 187 187 179 176 181 189 193 139 156 139 149 180 209 198 201 199 218 217 217 203 221 211 215 163 154 186 251 258 210 186 248 279 170 233 229 229 237 218 226 235 251 256 258 258 257 259 258 251
209 206 209 208 203 193 182 215 176 196 200 195 156 154 150 139 131 111 139 232 215 178 161 142 195 166 138 157 143 140 183 181 59 146 168 280 174 305 175 154 111 302 158 123 185 211 127 158 168 170 150 157 227 209 201 201 207 233 128 178 204 203 188 184 201 221 250 297 100 194 249 274 278 255 244 241 250 248 234 238 241 247 253 253 256 259 258 256
207 204 204 205 206 192 210 170 184 195 203 149 149 146 129 137 99 68 73 173 238 128 166 152 283 352 194 166 190 194 12 131 156 194 158 108 128 5 207 165 174 155 150 154 199 18 170 167 170 171 169 166 187 219 126 198 210 238 327 191 200 199 206 199 212 219 241 287 265 237 157 269 258 260 167 221 253 247 237 232 243 252 259 261 256 253 252 257
204 202 201 204 202 198 194 200 193 194 176 143 146 132 117 112 121 147 181 197 125 93 69 119 133 121 111 122 92 20 159 338 99 140 131 105 11 189 166 181 160 151 165 173 186 91 342 179 176 180 175 204 209 193 176 172 218 6 72 344 295 195 196 192 207 218 211 219 248 235 194 243 269 236 212 149 234 259 239 211 236 244 249 255 259 260 261 270
200 198 198 198 201 197 193 208 220 182 139 157 143 128 123 117 125 180 179 227 120 157 189 147 165 166 142 143 144 348 160 103 87 120 133 138 149 65 7 326 150 140 158 115 57 137 167 18 186 181 198 213 198 167 177 183 139 118 52 340 33 64 110 93 107 145 186 231 240 235 207 209 279 237 213 189 228 255 258 232 235 242 244 251 259 269 275 271
197 195 194 190 199 192 180 199 206 159 148 148 135 131 127 149 184 170 196 167 85 110 104 161 141 146 156 154 154 233 140 140 137 131 122 124 114 15 127 78 43 136 155 146 90 150 107 121 153 239 177 119 145 155 90 149 144 143 97 260 151 24 95 126 131 152 216 236 243 221 207 199 242 202 165 225 115 208 259 264 242 241 249 255 262 264 263 265
196 192 187 188 196 182 189 192 167 156 151 142 137 142 151 167 247 202 172 191 160 180 151 136 155 154 159 156 134 160 155 142 154 161 159 161 154 171 176 160 155 145 172 166 174 159 166 178 171 102 169 164 162 145 153 126 157 178 171 196 214 199 163 210 142 205 203 222 50 165 159 199 234 252 260 255 221 214 225 235 255 260 260 254 255 254 256 265
193 187 180 191 187 191 196 156 147 157 159 144 140 148 164 170 185 179 131 158 215 154 177 153 165 162 158 155 159 153 153 164 168 174 153 167 164 188 180 177 175 32 169 171 172 167 188 159 167 154 162 194 171 165 163 178 190 189 193 188 213 204 198 209 193 126 218 266 245 158 161 219 279 277 237 241 236 241 243 228 230 242 248 258 262 273 289 296
190 173 184 192 193 187 165 145 154 155 161 145 138 148 170 185 172 95 142 185 145 126 140 158 152 157 160 169 161 151 153 169 173 171 167 161 178 172 188 194 190 170 125 158 182 163 165 170 195 161 204 179 199 206 179 176 178 194 194 180 192 247 219 224 190 200 196 211 137 179 139 211 211 225 11 152 259 246 248 247 241 240 244 253 268 282 285 279
185 181 184 186 185 185 154 155 160 163 150 146 144 163 183 163 123 153 153 176 127 135 146 148 150 151 159 156 159 146 60 165 193 160 173 161 190 174 167 182 211 163 122 160 181 185 201 218 169 185 159 166 194 207 196 108 140 187 179 180 232 228 223 249 3 7 272 215 164 209 211 209 225 110 171 133 234 247 252 256 250 248 247 255 267 271 272 273
172 186 173 175 171 165 154 164 171 159 138 140 147 170 176 159 150 186 169 159 153 147 144 143 147 151 159 143 153 159 334 136 167 151 157 178 175 183 173 174 186 185 173 178 150 188 196 224 160 164 163 177 194 175 198 165 183 170 159 206 212 69 134 19 310 125 2 333 269 157 241 260 282 276 264 256 209 219 217 238 236 243 255 252 259 267 268 267
172 161 177 170 177 158 160 162 164 152 138 148 164 159 144 24 283 158 163 174 161 144 145 144 171 158 161 156 159 170 119 118 164 156 162 157 195 196 170 169 180 191 221 173 148 312 179 154 145 162 180 198 191 187 193 199 57 124 200 206 85 51 98 192 259 161 199 249 256 157 223 244 243 283 117 187 232 228 217 240 256 253 246 248 246 253 257 261
154 174 155 164 165 155 162 164 159 147 144 150 176 123 51 116 293 147 154 124 127 148 143 143 151 163 168 160 173 170 167 161 168 170 168 175 187 173 175 173 186 199 202 293 202 181 169 183 195 197 186 168 174 184 203 66 334 209 199 137 163 182 206 156 181 239 247 237 246 228 225 245 242 256 237 258 238 176 199 235 253 255 251 252 255 255 259 262
155 153 157 157 151 155 163 157 148 146 145 160 159 114 252 80 248 159 157 147 146 157 158 171 145 203 164 176 167 168 167 173 165 176 153 187 184 177 182 160 186 197 197 158 188 129 193 213 157 213 175 159 169 188 203 192 193 302 56 189 175 65 281 179 188 267 214 247 239 257 203 240 223 239 250 249 258 217 189 206 240 254 252 253 252 258 269 275
155 139 161 151 153 147 153 151 141 147 158 166 146 79 162 118 191 173 151 140 142 146 200 152 171 127 172 172 163 159 182 173 170 173 161 168 162 152 180 182 163 185 186 190 162 174 158 303 239 143 120 155 199 190 204 188 188 188 190 199 187 208 325 35 190 201 207 218 229 259 258 232 238 226 236 242 257 210 209 227 234 246 253 258 270 271 267 267
147 122 127 153 147 141 133 128 143 157 149 48 48 129 163 153 165 127 116 101 104 336 158 158 156 159 165 145 163 167 162 168 165 175 172 167 180 165 216 182 165 176 174 186 196 160 159 181 211 137 186 194 209 192 224 208 190 196 190 200 190 175 158 196 215 162 222 212 213 213 245 257 257 138 227 243 260 249 232 230 236 239 248 259 260 266 259 265
141 135 152 156 146 143 135 127 66 97 110 143 154 158 134 121 110 138 100 25 59 116 360 81 64 116 146 165 156 162 152 167 173 177 184 175 196 317 169 176 163 139 165 182 192 164 206 114 182 179 187 196 207 50 32 60 216 222 207 215 197 200 217 213 220 194 208 224 336 292 319 268 263 136 220 244 246 239 228 218 234 226 244 250 253 256 264 271
153 106 113 145 150 139 139 116 94 108 109 106 104 84 107 64 129 167 137 220 91 305 89 64 151 135 154 141 146 142 158 162 172 185 163 182 171 116 131 140 140 156 162 171 170 167 53 161 166 190 191 3 16 1 23 16 120 215 226 235 216 209 201 217 223 2 211 207 227 236 245 270 267 125 254 245 256 250 238 226 249 248 237 252 262 274 280 283
115 124 132 149 157 151 143 156 141 130 114 124 103 109 347 123 135 146 142 142 116 147 114 129 58 359 137 138 151 161 158 125 211 160 137 148 166 92 143 156 154 163 171 183 188 165 197 184 196 198 201 198 259 305 311 358 311 244 208 205 216 216 217 233 275 35 244 204 213 215 241 247 269 114 273 277 261 227 207 214 248 264 258 257 267 272 271 271
96 64 108 106 157 23 164 157 145 140 141 140 140 131 128 78 340 138 128 120 96 117 126 49 133 130 72 146 142 139 164 66 143 219 47 182 151 71 149 171 173 172 174 126 93 151 204 159 189 213 191 196 208 212 211 208 203 200 249 231 217 215 215 211 224 203 238 216 221 227 245 253 269 271 269 246 126 226 185 206 245 238 263 269 258 259 270 273
143 116 45 88 112 33 359 240 28 144 138 136 124 136 125 122 82 59 106 67 176 88 68 127 83 111 124 133 143 166 174 187 160 176 171 175 157 200 175 179 179 177 130 123 140 163 167 237 239 214 212 209 205 207 94 55 85 183 202 208 215 212 218 221 232 232 228 204 227 217 232 259 269 268 263 265 266 270 275 243 211 222 236 244 258 259 257 263
38 120 145 106 71 308 95 28 127 139 143 148 134 154 143 139 142 78 335 118 228 131 90 78 158 137 170 153 166 171 168 109 21 146 183 150 66 80 58 149 168 176 128 137 158 120 164 215 215 223 238 238 231 226 81 193 233 213 206 215 221 224 221 224 223 235 205 237 245 232 237 241 260 270 271 277 271 278 278 280 268 241 227 238 246 259 269 265
113 341 88 141 148 165 129 130 150 132 127 139 85 117 143 141 153 148 55 11 100 131 125 10 167 160 164 165 144 154 164 129 129 173 162 134 129 129 108 11 142 145 169 152 182 183 165 216 209 206 230 238 243 241 142 149 227 238 220 217 214 212 218 222 232 242 243 238 253 243 234 235 250 262 271 271 277 281 292 286 288 284 275 255 257 262 263 268
41 107 92 274 121 162 157 151 145 144 140 135 105 123 149 148 148 133 143 141 142 176 139 145 183 170 164 155 153 162 160 144 207 166 168 171 164 149 119 91 344 343 182 155 109 10 173 229 224 208 234 237 239 240 207 206 234 244 240 237 243 218 217 222 229 230 229 235 239 247 255 250 247 262 272 276 280 289 288 289 282 268 271 274 264 263 264 270
150 150 142 343 72 104 108 119 127 136 138 144 139 162 150 152 135 134 56 141 155 169 339 141 148 153 164 163 159 163 186 193 144 142 178 140 128 173 139 114 134 63 199 161 142 296 205 230 199 145 225 248 249 248 231 222 222 240 242 245 241 263 261 238 244 243 241 240 238 234 239 250 255 267 275 280 277 275 276 273 270 268 278 264 255 257 258 256
93 351 98 134 114 112 122 138 146 150 128 141 133 147 125 146 127 105 97 346 147 128 178 146 141 144 158 165 173 181 161 130 156 176 164 156 165 170 151 214 156 143 164 141 146 209 188 245 103 162 233 246 241 242 240 231 231 243 248 244 241 236 242 231 229 222 230 237 238 242 241 245 251 252 263 276 279 272 263 265 273 284 254 225 242 253 259 265
60 334 77 105 107 147 135 144 133 130 161 171 136 164 162 157 141 138 88 29 30 107 125 127 136 129 128 171 180 143 146 128 142 117 145 101 95 117 115 154 168 163 172 184 155 165 181 199 195 190 220 238 243 230 243 251 266 255 238 233 232 232 228 234 239 239 240 246 254 243 247 239 242 248 259 267 274 275 273 272 273 279 280 270 265 263 261 261